Regional Weather Roundup
Issued by NWS State College, PA

Home | Current Version | Previous Version | Text Only | Print | Product List | Glossary On
Versions: 1 2 3 4 5 6 7 8 9 10 11 12 13 14 15 16 17 18 19 20 21 22 23 24 25 26 27 28 29 30 31 32 33 34 35 36 37 38 39 40 41 42 43 44 45 46 47 48 49 50
000
ASUS41 KCTP 171003
RWRCTP

REGIONAL WEATHER ROUNDUP
NATIONAL WEATHER SERVICE STATE COLLEGE PA
600 AM EDT WED SEP 17 2014

Note: "fair" indicates few or no clouds below 12,000 feet with no
significant weather and/or obstructions to visibility.

* = STATION THAT DOES NOT REPORT PRECIPITATION /E.G. RAIN...SNOW...ETC/
    THUNDER OR FOG.

PAZ002>004-007>009-013>016-020>023-029>032-171100-
WESTERN PENNSYLVANIA

CITY           SKY/WX    TMP DP  RH WIND       PRES   REMARKS
ERIE           PTCLDY    51  46  83 S6        30.06S
MEADVILLE      CLEAR     45  43  93 S5        30.07S
FRANKLIN*      CLEAR     43  39  87 CALM      30.09R
NEW CASTLE     FOG       44  44 100 CALM      30.09S VSB<1/4
BEAVER COUNTY  NOT AVBL
BUTLER*        MOCLDY    46  45  93 NE3       30.08F
PITTSBURGH INT MOCLDY    51  49  92 CALM      30.07S
PITTSBURGH     PTCLDY    52  47  83 CALM      30.06F
INDIANA*       CLOUDY    46  46 100 CALM      30.11S
LATROBE        CLOUDY    46  46 100 CALM      30.08S
WASHINGTON CO* MOCLDY    43  41  93 CALM      30.07S VSB 3/4
$$

PAZ004>006-010>012-017>019-024>028-033>037-041-042-045-046-049>053-171100-
CENTRAL PENNSYLVANIA

CITY           SKY/WX    TMP DP  RH WIND       PRES   REMARKS
BRADFORD       CLEAR     36  34  92 CALM      30.07S
DUBOIS         FOG       43  43 100 CALM      30.06S VSB 3/4
CLEARFIELD     FOG       44  44 100 CALM      30.08S VSB 1/2
JOHNSTOWN      MOCLDY    48  45  89 SW3       30.07F
ALTOONA        CLOUDY    47  46  97 CALM      30.08S FOG
STATE COLLEGE  CLEAR     45  45 100 CALM      30.07S
WILLIAMSPORT   CLOUDY    48  46  93 NW6       30.08R FOG
SELINSGROVE    MOCLDY    48  46  93 CALM      30.08R FOG
FT INDIANTOWN  PTCLDY    49  49 100 VRB1      30.05S
CAPITAL CITY   CLEAR     50  47  89 W7        30.06S
HARRISBURG     PTCLDY    53  50  89 NW6       30.05S
YORK           FOG       43  42  97 CALM      30.06R VSB 3/4
$$

PAZ038>040-043-044-047-048-054-055-060>062-067>071-171100-
EASTERN PENNSYLVANIA

CITY           SKY/WX    TMP DP  RH WIND       PRES   REMARKS
SCRANTON       MOCLDY    44  41  89 E3        30.07R
MOUNT POCONO   CLEAR     39  37  92 CALM      30.06S
ALLENTOWN      PTCLDY    45  43  93 NW5       30.06R
QUAKERTOWN*    SUNNY     45  45 100 CALM      30.06S
READING        CLEAR     51  49  92 CALM      30.04S
LANCASTER      CLEAR     48  46  93 CALM      30.05S
COATESVILLE    SUNNY     54  50  87 N3        30.05S
POTTSTOWN      CLEAR     49  47  93 CALM      30.06S
BLUE BELL      PTCLDY    48  46  93 CALM      30.04S
DOYLESTOWN     CLEAR     50  32  50 NE5       30.04S
WILLOW GROVE   NOT AVBL
NORTH PHILA    PTCLDY    53  47  79 NW3       30.06R
PHILADELPHIA   MOCLDY    58  50  75 NW6       30.04S
$$


USA.gov is the U.S. government's official web portal to all federal, state and local government web resources and services.